Вернуться в каталог

TELSTAR 3C R/B

PAM-D

АктивенHEO
NORAD 15246·ROCKET BODY·🇺🇸 United States

Запущен Aug 30, 1984 с Cape Canaveral Space Force Station

Loading…

Ближайшие Пролёты (ближайшие 24 часа)

TLE

СвежийSource: Space-Track

Эпоха: Sep 14, 2026, 01:04 UTC

1 15246U 84093G   26257.04491819  .00000779  00000-0  17612-2 0  9992
2 15246  24.7130 214.6199 7045139 347.2960   1.4167  2.51490621359612

Отслеживайте TELSTAR 3C R/B в реальном времени с AllMySat

Download on the App Store